Retour au catalogue

STARLINK-11525

ActifCommunicationsVLEO
NORAD 62566·PAYLOAD·🇺🇸 United States

Lancé Jan 10, 2025 depuis Cape Canaveral Space Force Station

Loading…

Prochains Passages (prochaines 24 heures)

TLE

FraisSource: CelesTrak SupGP

Époque: Sep 14, 2026, 21:33 UTC

1 62566C 25006N   26257.89840278  .00044922  00000+0  34904-3 0  2576
2 62566  43.0009  79.8627 0001619 276.9949 129.1680 15.70806923    14

Suivez STARLINK-11525 en temps réel avec AllMySat

Download on the App Store